{"data":{"norad_id":58906,"epoch":"2026-05-25T03:40:16.784256Z","epoch_age_seconds":76030,"freshness":"FRESH","line1":"1 58906U 24023B   26145.15297204  .00001295  00000+0  18452-3 0  9996","line2":"2 58906  49.9984 100.9113 0015117 271.9919  87.9288 14.83151418125490","mean_motion":14.83151418,"eccentricity":0.0015117,"inclination_deg":49.9984,"raan_deg":100.9113,"arg_perigee_deg":271.9919,"mean_anomaly_deg":87.9288,"bstar":0.00018452,"rev_number":12549,"period_min":97.090558827892,"perigee_km":608.81608959922,"apogee_km":629.97242560345,"semimajor_km":6997.5312576013,"source":"CELESTRAK","updated_at":"2026-05-25T13:38:01.047891Z"}}